XIWANG-1 (HOPE-1) (36122 NORAD) Tracking and Keplerian Element Data

This shows tracking and keplerian element data for the satellite.

Feedback or suggestion? Click here.




ElementValue
Catalog36122
NameXIWANG-1 (HOPE-1)
Epoch Orbit71243
Epoch Day286.83700819
Epoch Year2024
RAAN242.0875
Inclination100.3105
Eccentricity0.0007259
Argument of Perigee188.9505
Mean Anonmoly171.1479
Mean Motion13.16410161
Decay Rate3.6E-07
L11 36122U 09072B 24286.83700819 .00000036 00000+0 20992-3 0 9993
L22 36122 100.3105 242.0875 0007259 188.9505 171.1479 13.16410161712434



Live tracking and technical data element details for XIWANG-1 (HOPE-1) (NORAD 36122). XIWANG-1 (HOPE-1) can be tracked NOW for your location showing map with azimuth and elevation plus other details from your city location.







IsCatalogInMostPopularTable: catalog: 36122, numindb: 368
Update: records affected: 1



GetName: 36122 XIWANG-1 (HOPE-1)

Hit Count: updated at: Fri, 24 Jan 2025 23:12:11 GMT